Location: Zagreb
(45.8000°N, 16.0000°E)
Time: 20:42:03
(UTC+01:00)

DX 1 - Pass Details

Date: 05 November 2020
Orbit: 619 x 630 km, 98.5° (Epoch: 01 December)

Event Time Altitude Azimuth Distance (km) Brightness Sun altitude
Exits shadow 17:58:58 - 26° (NNE) 2,246 ? -14.7°
Reaches altitude 10° 17:59:36 10° 28° (NNE) 2,003 ? -14.8°
Maximum altitude 18:03:43 40° 99° (E) 926 ? -15.5°
Drops below altitude 10° 18:07:48 10° 169° (S) 1,994 ? -16.2°
Sets 18:10:05 0° 177° (S) 2,898 ? -16.6°
